Whiteman AFB, MO

5:11 AM CST on December 13, 2019 (GMT -0600)
Whiteman Air Force Base

Weather History for KSZL - October, 2019

Change the Weather History Date:

Monday, October 7, 2019

  Actual Average Record
Temperature  
Mean Temperature 56 °F -  
Max Temperature 71 °F 69 °F 88 °F (2007)
Min Temperature 41 °F 48 °F 28 °F (2000)
Degree Days  
Heating Degree Days 9    
Growing Degree Days 6 (Base 50)    
Moisture  
Dew Point 45 °F    
Average Humidity 73    
Maximum Humidity 100    
Minimum Humidity 28    
Precipitation  
Precipitation 0.00 in - - ()
Sea Level Pressure  
Sea Level Pressure 30.22 in    
Wind  
Wind Speed 2 mph (West)    
Max Wind Speed 6 mph    
Max Gust Speed -    
Visibility 10 miles    
Events      
Averages and records for this station are not official NWS values.
T = Trace of Precipitation, MM = Missing Value Source: NWS Daily Summary

Daily Weather History Graph

Daily Weather History Graph

Search for Another Location

Airport or City:

Astronomy

Oct. 07, 2019 Rise Set
Actual Time 7:15 AM CDT 6:47 PM CDT
Civil Twilight 6:48 AM CDT 7:14 PM CDT
Nautical Twilight 6:18 AM CDT 7:45 PM CDT
Astronomical Twilight 5:47 AM CDT 8:16 PM CDT
Moon 4:05 PM CDT (10/7) 1:13 AM CDT (10/7)
Length of Visible Light 12h 25m
Length of Day
11h 32m
Waxing Gibbous, 69% of the Moon is Illuminated
Oct 7
Waxing Gibbous
Oct 13
Full
Oct 21
Last Quarter
Oct 27
New
Nov 4
First Quarter

Hourly Weather History & Observations

Time (CDT) Temp. Windchill Dew Point Humidity Pressure Visibility Wind Dir Wind Speed Gust Speed Precip Events Conditions
12:56 AM 49.6 °F - 49.6 °F 100% 30.23 in 10.0 mi West 3.5 mph - N/A   Clear
1:56 AM 48.2 °F - 47.1 °F 96% 30.23 in 10.0 mi West 5.8 mph - N/A   Clear
2:56 AM 46.2 °F - 46.2 °F 100% 30.23 in 10.0 mi Calm Calm - N/A   Clear
3:56 AM 43.3 °F 40.7 °F 43.3 °F 100% 30.22 in 10.0 mi South 4.6 mph - N/A   Clear
4:56 AM 44.2 °F 42.7 °F 44.2 °F 100% 30.23 in 10.0 mi WSW 3.5 mph - N/A   Clear
5:56 AM 45.9 °F - 45.9 °F 100% 30.24 in 10.0 mi Calm Calm - N/A   Clear
6:56 AM 41.9 °F - 41.9 °F 100% 30.25 in 10.0 mi Calm Calm - N/A   Clear
7:56 AM 43.9 °F - 43.9 °F 100% 30.26 in 10.0 mi Calm Calm - N/A   Clear
8:56 AM 50.9 °F - 50.5 °F 99% 30.26 in 10.0 mi Calm Calm - N/A   Clear
9:56 AM 58.3 °F - 49.6 °F 73% 30.27 in 10.0 mi NW 3.5 mph - N/A   Clear
10:56 AM 63.7 °F - 47.1 °F 55% 30.28 in 10.0 mi Calm Calm - N/A   Clear
11:56 AM 68.0 °F - 44.1 °F 42% 30.27 in 10.0 mi WNW 4.6 mph - N/A   Clear
12:55 PM 69.8 °F - 37.0 °F 30% 30.25 in 10.0 mi SW 4.6 mph - N/A   Clear
1:56 PM 71.4 °F - 40.8 °F 33% 30.22 in 10.0 mi NNW 5.8 mph - N/A   Clear
2:56 PM 71.1 °F - 37.2 °F 29% 30.21 in 10.0 mi Calm Calm - N/A   Clear
3:56 PM 71.2 °F - 36.5 °F 28% 30.19 in 10.0 mi Calm Calm - N/A   Clear
4:56 PM 71.2 °F - 37.4 °F 29% 30.18 in 10.0 mi Calm Calm - N/A   Clear
5:56 PM 69.8 °F - 43.0 °F 38% 30.17 in 10.0 mi Calm Calm - N/A   Clear
6:56 PM 58.6 °F - 49.3 °F 71% 30.18 in 10.0 mi Calm Calm - N/A   Clear
7:58 PM 56.5 °F - 46.4 °F 69% 30.17 in 10.0 mi Calm Calm - N/A   Clear
8:56 PM 49.6 °F - 47.1 °F 91% 30.17 in 10.0 mi Calm Calm - N/A   Clear
9:56 PM 50.5 °F - 47.1 °F 88% 30.17 in 10.0 mi Calm Calm - N/A   Clear
10:56 PM 52.2 °F - 47.1 °F 83% 30.18 in 10.0 mi Calm Calm - N/A   Clear
11:56 PM 50.0 °F - 47.5 °F 91% 30.17 in 10.0 mi SSE 4.6 mph - N/A   Clear